User: anonymous   Login
Location: Bushey
(51.6333°N, 0.3667°W)
Time: 20:44:54
(UTC+00:00)
Language:

IRS-1A Rocket - Orbit

View from above orbital plane
View from above orbital plane
View from above satellite
View from above satellite

Ground track
Ground track

The orbit data is extracted from the following two-line orbital elements,

1 18961U 88021B   21136.76869769 -.00000243  00000-0 -13080-3 0  9991
2 18961  99.1889 186.3481 0053255 264.9975 205.8077 14.00725500695546
Epoch (UTC): 16 May 2021 18:26:55
Eccentricity: 0.0053255
inclination: 99.1889°
perigee height: 852 km
apogee height: 930 km
right ascension of ascending node: 186.3481°
argument of perigee: 264.9975°
revolutions per day: 14.00725500
mean anomaly at epoch: 205.8077°
orbit number at epoch: 69554

The dashed part of the orbit path shows where the satellite is in the earth's shadow,  

DLR